Location: Betpouey
(42.8833°N, 0.0333°E)
Time: 22:04:11
(UTC+00:00)

SMAP - Pass Details

Date: 01 December 2020
Orbit: 681 x 683 km, 98.1° (Epoch: 18 January)

Event Time Altitude Azimuth Distance (km) Brightness Sun altitude
Rises 16:59:08 0° 153° (SSE) 3,033 6.4 -6.1°
Reaches altitude 10° 17:01:23 10° 148° (SSE) 2,122 5.5 -6.5°
Maximum altitude 17:05:54 53° 72° (ENE) 839 3.2 -7.3°
Drops below altitude 10° 17:10:27 10° 356° (N) 2,138 5.4 -8.1°
Sets 17:12:44 0° 352° (N) 3,058 6.3 -8.4°
